| time (UTC) | temp F | wind direction | speed MPH | gust MPH | rain 1hr in | rain 24hr in | rain mn in | humidity % | barometer mb |
| 20260505102201 | 51 | 283 | 5.0 | 15.0 | 0.01 | 0.10 | 0.06 | 1 | 1014.3 |
| 20260505101702 | 51 | 255 | 6.0 | 15.0 | 0.01 | 0.10 | 0.06 | 1 | 1014.2 |
| 20260505101201 | 51 | 266 | 5.0 | 12.0 | 0.01 | 0.10 | 0.06 | 1 | 1014.3 |
| 20260505100700 | 51 | 0 | 5.0 | 15.0 | 0.01 | 0.10 | 0.06 | 1 | 1014.4 |
| 20260505100201 | 51 | 0 | 8.0 | 15.0 | 0.01 | 0.10 | 0.06 | 1 | 1014.5 |
| 20260505095702 | 51 | 255 | 5.0 | 13.0 | 0.01 | 0.09 | 0.06 | 1 | 1014.5 |
| 20260505095200 | 51 | 257 | 6.0 | 16.0 | 0.01 | 0.09 | 0.06 | 1 | 1014.4 |
| 20260505094944 | 51 | 258 | 6.0 | 16.0 | 0.01 | 0.09 | 0.06 | 1 | 1014.5 |
| 20260505094200 | 51 | 326 | 4.0 | 12.0 | 0.01 | 0.09 | 0.06 | 1 | 1014.5 |
| 20260505093700 | 51 | 96 | 4.0 | 14.0 | 0.01 | 0.09 | 0.06 | 1 | 1014.5 |
| 20260505093201 | 52 | 52 | 6.0 | 16.0 | 0.00 | 0.09 | 0.05 | 1 | 1014.6 |
| 20260505092700 | 52 | 209 | 6.0 | 16.0 | 0.01 | 0.09 | 0.05 | 1 | 1014.6 |
| 20260505092235 | 52 | 0 | 6.0 | 16.0 | 0.01 | 0.09 | 0.05 | 1 | 1014.8 |
| 20260505092222 | 52 | 265 | 9.0 | 16.0 | 0.01 | 0.09 | 0.05 | 1 | 1014.7 |
| 20260505091445 | 52 | 0 | 5.0 | 16.0 | 0.01 | 0.09 | 0.05 | 1 | 1015.0 |
| 20260505090659 | 52 | 343 | 6.0 | 16.0 | 0.02 | 0.09 | 0.05 | 1 | 1015.0 |
| 20260505090200 | 52 | 0 | 6.0 | 16.0 | 0.02 | 0.09 | 0.05 | 1 | 1014.9 |
| 20260505085700 | 52 | 0 | 6.0 | 13.0 | 0.03 | 0.07 | 0.05 | 1 | 1014.9 |
| 20260505085159 | 52 | 104 | 3.0 | 15.0 | 0.03 | 0.07 | 0.05 | 1 | 1015.0 |
| 20260505084700 | 52 | 271 | 7.0 | 15.0 | 0.04 | 0.07 | 0.05 | 1 | 1015.0 |
| 20260505084159 | 52 | 4 | 4.0 | 12.0 | 0.04 | 0.07 | 0.05 | 1 | 1014.9 |
| 20260505083658 | 51 | 259 | 3.0 | 15.0 | 0.04 | 0.07 | 0.05 | 1 | 1015.0 |
| 20260505083159 | 51 | 244 | 4.0 | 16.0 | 0.04 | 0.07 | 0.05 | 1 | 1015.0 |
| 20260505082658 | 51 | 233 | 8.0 | 16.0 | 0.03 | 0.07 | 0.04 | 1 | 1014.9 |
| 20260505082158 | 51 | 323 | 4.0 | 16.0 | 0.03 | 0.07 | 0.04 | 1 | 1014.9 |
| 20260505081658 | 51 | 47 | 4.0 | 17.0 | 0.04 | 0.07 | 0.04 | 1 | 1015.0 |
| 20260505081158 | 51 | 278 | 9.0 | 17.0 | 0.04 | 0.07 | 0.04 | 1 | 1015.1 |
| 20260505080659 | 51 | 151 | 6.0 | 14.0 | 0.03 | 0.07 | 0.03 | 1 | 1015.1 |
| 20260505080229 | 51 | 288 | 7.0 | 14.0 | 0.02 | 0.04 | 0.02 | 1 | 1015.4 |
| 20260505080217 | 51 | 11 | 5.0 | 11.0 | 0.03 | 0.07 | 0.03 | 1 | 1015.2 |
| 20260505075157 | 51 | 234 | 3.0 | 16.0 | 0.02 | 0.04 | 0.02 | 1 | 1015.4 |
| 20260505074658 | 51 | 250 | 7.0 | 16.0 | 0.01 | 0.04 | 0.01 | 1 | 1015.2 |
| 20260505074159 | 51 | 245 | 10.0 | 16.0 | 0.01 | 0.04 | 0.01 | 1 | 1015.1 |
| 20260505073658 | 51 | 243 | 7.0 | 14.0 | 0.01 | 0.04 | 0.01 | 1 | 1015.2 |
| 20260505073157 | 51 | 226 | 5.0 | 13.0 | 0.01 | 0.04 | 0.01 | 1 | 1015.3 |
| 20260505072657 | 51 | 278 | 4.0 | 14.0 | 0.01 | 0.04 | 0.01 | 1 | 1015.6 |
| 20260505072442 | 51 | 155 | 3.0 | 14.0 | 0.01 | 0.04 | 0.01 | 1 | 1015.6 |
| 20260505071658 | 51 | 290 | 4.0 | 15.0 | 0.00 | 0.04 | 0.00 | 1 | 1015.7 |
| 20260505071158 | 51 | 316 | 7.0 | 15.0 | 0.01 | 0.04 | 0.00 | 1 | 1015.6 |
| 20260505070656 | 51 | 8 | 5.0 | 15.0 | 0.01 | 0.04 | 0.00 | 1 | 1015.4 |
| 20260505070157 | 51 | 271 | 5.0 | 15.0 | 0.01 | 0.04 | 0.00 | 1 | 1015.4 |
| 20260505065658 | 51 | 0 | 3.0 | 15.0 | 0.01 | 0.03 | 0.04 | 1 | 1015.3 |
| 20260505065445 | 51 | 282 | 5.0 | 15.0 | 0.01 | 0.03 | 0.04 | 1 | 1015.3 |
| 20260505064656 | 51 | 271 | 4.0 | 14.0 | 0.01 | 0.03 | 0.04 | 1 | 1015.2 |
| 20260505064156 | 51 | 283 | 7.0 | 14.0 | 0.01 | 0.03 | 0.04 | 1 | 1015.1 |
| 20260505063656 | 51 | 276 | 6.0 | 16.0 | 0.02 | 0.03 | 0.04 | 1 | 1015.1 |
| 20260505063155 | 51 | 140 | 5.0 | 16.0 | 0.02 | 0.03 | 0.04 | 1 | 1014.9 |
| 20260505062657 | 51 | 302 | 6.0 | 19.0 | 0.02 | 0.03 | 0.04 | 1 | 1014.8 |
| 20260505062155 | 51 | 282 | 7.0 | 19.0 | 0.02 | 0.03 | 0.04 | 1 | 1015.0 |
| 20260505061655 | 50 | 272 | 7.0 | 18.0 | 0.02 | 0.03 | 0.04 | 1 | 1015.0 |
| 20260505061157 | 50 | 44 | 8.0 | 18.0 | 0.02 | 0.03 | 0.03 | 1 | 1015.0 |
| 20260505060939 | 50 | 265 | 6.0 | 20.0 | 0.02 | 0.03 | 0.03 | 1 | 1015.1 |
| 20260505060436 | 50 | 0 | 7.0 | 20.0 | 0.02 | 0.03 | 0.03 | 1 | 1015.2 |
| 20260505055656 | 51 | 118 | 8.0 | 16.0 | 0.02 | 0.01 | 0.03 | 1 | 1015.3 |
| 20260505055156 | 51 | 42 | 4.0 | 15.0 | 0.03 | 0.01 | 0.03 | 1 | 1015.2 |
| 20260505054655 | 51 | 272 | 5.0 | 18.0 | 0.03 | 0.01 | 0.03 | 1 | 1015.2 |
| 20260505054155 | 51 | 279 | 9.0 | 18.0 | 0.03 | 0.01 | 0.02 | 1 | 1015.2 |
| 20260505053655 | 51 | 299 | 8.0 | 16.0 | 0.02 | 0.01 | 0.02 | 1 | 1015.1 |
| 20260505053154 | 51 | 20 | 4.0 | 12.0 | 0.02 | 0.01 | 0.02 | 1 | 1015.2 |
| 20260505052937 | 52 | 202 | 4.0 | 14.0 | 0.02 | 0.01 | 0.02 | 1 | 1015.1 |
| 20260505052155 | 52 | 235 | 7.0 | 14.0 | 0.02 | 0.01 | 0.02 | 1 | 1015.1 |
| 20260505051939 | 52 | 268 | 5.0 | 13.0 | 0.02 | 0.01 | 0.02 | 1 | 1015.2 |
| 20260505051154 | 52 | 227 | 5.0 | 11.0 | 0.01 | 0.01 | 0.01 | 1 | 1015.2 |
| 20260505050654 | 52 | 241 | 4.0 | 11.0 | 0.01 | 0.01 | 0.01 | 1 | 1015.3 |
| 20260505050153 | 52 | 251 | 4.0 | 11.0 | 0.01 | 0.01 | 0.01 | 1 | 1015.4 |
| 20260505041153 | 53 | 18 | 5.0 | 16.0 | 0.00 | 0.00 | 0.00 | 1 | 1015.4 |
| 20260505040655 | 53 | 306 | 4.0 | 20.0 | 0.00 | 0.00 | 0.00 | 1 | 1015.3 |
| 20260505040153 | 53 | 275 | 9.0 | 21.0 | 0.00 | 0.00 | 0.00 | 1 | 1015.1 |
| 20260505035654 | 53 | 341 | 11.0 | 23.0 | 0.00 | 0.00 | 0.00 | 1 | 1015.0 |
| 20260505035154 | 53 | 151 | 7.0 | 23.0 | 0.00 | 0.00 | 0.00 | 1 | 1014.9 |
| 20260505034655 | 53 | 0 | 7.0 | 23.0 | 0.00 | 0.00 | 0.00 | 1 | 1014.8 |
| 20260505034153 | 53 | 307 | 10.0 | 23.0 | 0.00 | 0.00 | 0.00 | 1 | 1014.7 |
| 20260505033655 | 53 | 269 | 11.0 | 22.0 | 0.00 | 0.00 | 0.00 | 1 | 1014.6 |
| 20260505033154 | 53 | 0 | 9.0 | 22.0 | 0.00 | 0.00 | 0.00 | 1 | 1014.7 |
| 20260505032653 | 53 | 250 | 11.0 | 20.0 | 0.00 | 0.00 | 0.00 | 1 | 1014.6 |
| 20260505032154 | 53 | 317 | 8.0 | 18.0 | 0.00 | 0.00 | 0.00 | 1 | 1014.6 |
| 20260505031652 | 54 | 255 | 4.0 | 16.0 | 0.00 | 0.00 | 0.00 | 1 | 1014.5 |
| 20260505031153 | 54 | 240 | 7.0 | 17.0 | 0.00 | 0.00 | 0.00 | 1 | 1014.5 |
| 20260505030652 | 54 | 317 | 3.0 | 18.0 | 0.00 | 0.00 | 0.00 | 1 | 1014.4 |
| 20260505030153 | 54 | 338 | 8.0 | 18.0 | 0.00 | 0.00 | 0.00 | 1 | 1014.4 |
| 20260505025652 | 54 | 0 | 3.0 | 14.0 | 0.00 | 0.00 | 0.00 | 1 | 1014.4 |
| 20260505025230 | 54 | 268 | 7.0 | 15.0 | 0.00 | 0.00 | 0.00 | 1 | 1014.5 |
| 20260505025218 | 54 | 265 | 5.0 | 15.0 | 0.00 | 0.00 | 0.00 | 1 | 1014.5 |
| 20260505024434 | 54 | 213 | 4.0 | 15.0 | 0.00 | 0.00 | 0.00 | 1 | 1014.5 |
| 20260505023939 | 54 | 299 | 6.0 | 18.0 | 0.00 | 0.00 | 0.00 | 1 | 1014.6 |
| 20260505023151 | 54 | 0 | 5.0 | 18.0 | 0.00 | 0.00 | 0.00 | 1 | 1014.5 |
| 20260505022651 | 54 | 6 | 8.0 | 21.0 | 0.00 | 0.00 | 0.00 | 1 | 1014.4 |
| 20260505022436 | 54 | 37 | 7.0 | 21.0 | 0.00 | 0.00 | 0.00 | 1 | 1014.3 |
| 20260505021652 | 54 | 7 | 6.0 | 23.0 | 0.00 | 0.00 | 0.00 | 1 | 1014.3 |
| 20260505021436 | 54 | 241 | 7.0 | 23.0 | 0.00 | 0.00 | 0.00 | 1 | 1014.3 |
| 20260505020652 | 55 | 197 | 6.0 | 22.0 | 0.00 | 0.00 | 0.00 | 1 | 1014.3 |
| 20260505020152 | 55 | 28 | 6.0 | 16.0 | 0.00 | 0.00 | 0.00 | 1 | 1014.4 |
| 20260505015731 | 55 | 296 | 5.0 | 21.0 | 0.00 | 0.00 | 0.00 | 1 | 1014.5 |
| 20260505015717 | 55 | 272 | 4.0 | 21.0 | 0.00 | 0.00 | 0.00 | 1 | 1014.5 |
| 20260505014938 | 55 | 276 | 7.0 | 23.0 | 0.00 | 0.00 | 0.00 | 1 | 1014.6 |
| 20260505014150 | 55 | 288 | 9.0 | 23.0 | 0.00 | 0.00 | 0.00 | 1 | 1014.6 |
| 20260505013936 | 55 | 281 | 11.0 | 24.0 | 0.00 | 0.00 | 0.00 | 1 | 1014.7 |
| 20260505013433 | 55 | 303 | 7.0 | 24.0 | 0.00 | 0.00 | 0.00 | 1 | 1014.7 |
| 20260505012651 | 55 | 0 | 11.0 | 23.0 | 0.00 | 0.00 | 0.00 | 1 | 1014.8 |
| 20260505012150 | 55 | 0 | 12.0 | 24.0 | 0.00 | 0.00 | 0.00 | 1 | 1014.8 |
| 20260505011651 | 55 | 1 | 6.0 | 24.0 | 0.00 | 0.00 | 0.00 | 1 | 1014.7 |
| 20260505011150 | 55 | 0 | 6.0 | 18.0 | 0.00 | 0.00 | 0.00 | 1 | 1014.8 |
| 20260505010650 | 56 | 295 | 7.0 | 18.0 | 0.00 | 0.00 | 0.00 | 1 | 1014.9 |
| 20260505010151 | 56 | 155 | 6.0 | 21.0 | 0.00 | 0.00 | 0.00 | 1 | 1014.8 |
| 20260505005649 | 56 | 0 | 11.0 | 21.0 | 0.00 | 0.00 | 0.00 | 1 | 1014.9 |
| 20260505005149 | 56 | 0 | 8.0 | 19.0 | 0.00 | 0.00 | 0.00 | 1 | 1014.9 |
| 20260505004649 | 56 | 30 | 8.0 | 18.0 | 0.00 | 0.00 | 0.00 | 1 | 1014.9 |
| 20260505004432 | 56 | 259 | 6.0 | 21.0 | 0.00 | 0.00 | 0.00 | 1 | 1015.0 |
| 20260505003647 | 56 | 34 | 6.0 | 21.0 | 0.00 | 0.00 | 0.00 | 1 | 1015.1 |
| 20260505003150 | 56 | 316 | 6.0 | 18.0 | 0.00 | 0.00 | 0.00 | 1 | 1015.0 |
| 20260505002650 | 56 | 226 | 8.0 | 18.0 | 0.00 | 0.00 | 0.00 | 1 | 1015.1 |
| 20260505002432 | 56 | 282 | 7.0 | 18.0 | 0.00 | 0.00 | 0.00 | 1 | 1015.1 |
| 20260505001648 | 56 | 261 | 8.0 | 21.0 | 0.00 | 0.00 | 0.00 | 1 | 1015.3 |
| 20260505001148 | 56 | 248 | 12.0 | 21.0 | 0.00 | 0.00 | 0.00 | 1 | 1015.2 |
| 20260505000650 | 56 | 271 | 10.0 | 27.0 | 0.00 | 0.00 | 0.00 | 1 | 1015.2 |
| 20260505000149 | 56 | 25 | 13.0 | 27.0 | 0.00 | 0.00 | 0.00 | 1 | 1015.0 |
| 20260504235649 | 56 | 266 | 8.0 | 20.0 | 0.00 | 0.00 | 0.00 | 1 | 1015.1 |
| 20260504235147 | 56 | 357 | 8.0 | 23.0 | 0.00 | 0.00 | 0.00 | 1 | 1015.1 |
| 20260504234649 | 56 | 133 | 5.0 | 23.0 | 0.00 | 0.00 | 0.00 | 1 | 1015.0 |
| 20260504234148 | 56 | 240 | 9.0 | 27.0 | 0.00 | 0.00 | 0.00 | 1 | 1015.1 |
| 20260504233648 | 56 | 240 | 13.0 | 27.0 | 0.00 | 0.00 | 0.00 | 1 | 1014.9 |
| 20260504233149 | 56 | 0 | 12.0 | 23.0 | 0.00 | 0.00 | 0.00 | 1 | 1015.1 |
| 20260504232648 | 56 | 0 | 6.0 | 22.0 | 0.00 | 0.00 | 0.00 | 1 | 1015.0 |
| 20260504232147 | 56 | 6 | 6.0 | 22.0 | 0.00 | 0.00 | 0.00 | 1 | 1015.0 |
| 20260504231647 | 56 | 114 | 7.0 | 45.0 | 0.00 | 0.00 | 0.00 | 1 | 1015.1 |
| 20260504231146 | 56 | 230 | 13.0 | 45.0 | 0.00 | 0.00 | 0.00 | 1 | 1014.9 |
| 20260504230647 | 57 | 247 | 7.0 | 23.0 | 0.00 | 0.00 | 0.00 | 1 | 1015.2 |
| 20260504230146 | 57 | 272 | 8.0 | 23.0 | 0.00 | 0.00 | 0.00 | 1 | 1015.1 |
| 20260504225648 | 57 | 0 | 7.0 | 21.0 | 0.00 | 0.00 | 0.00 | 1 | 1015.0 |
| 20260504225147 | 57 | 326 | 8.0 | 21.0 | 0.00 | 0.00 | 0.00 | 1 | 1015.2 |
| 20260504224646 | 57 | 4 | 4.0 | 23.0 | 0.00 | 0.00 | 0.00 | 1 | 1015.3 |
| 20260504224146 | 57 | 169 | 14.0 | 23.0 | 0.00 | 0.00 | 0.00 | 1 | 1015.3 |
| 20260504223647 | 57 | 251 | 11.0 | 19.0 | 0.00 | 0.00 | 0.00 | 1 | 1015.1 |
| 20260504223147 | 58 | 254 | 8.0 | 19.0 | 0.00 | 0.00 | 0.00 | 1 | 1015.3 |
| 20260504222928 | 58 | 248 | 6.0 | 23.0 | 0.00 | 0.00 | 0.00 | 1 | 1015.3 |
| 20260504222147 | 58 | 251 | 10.0 | 23.0 | 0.00 | 0.00 | 0.00 | 1 | 1015.4 |
| 20260504221647 | 58 | 282 | 8.0 | 21.0 | 0.00 | 0.00 | 0.00 | 1 | 1015.4 |
| 20260504221145 | 58 | 24 | 9.0 | 22.0 | 0.00 | 0.00 | 0.00 | 1 | 1015.3 |
| 20260504220646 | 58 | 289 | 11.0 | 24.0 | 0.00 | 0.00 | 0.00 | 1 | 1015.6 |
| 20260504220146 | 58 | 334 | 13.0 | 24.0 | 0.00 | 0.00 | 0.00 | 1 | 1015.4 |
| 20260504215647 | 59 | 290 | 7.0 | 22.0 | 0.00 | 0.00 | 0.00 | 1 | 1015.4 |
| 20260504215145 | 59 | 255 | 10.0 | 22.0 | 0.00 | 0.00 | 0.00 | 1 | 1015.4 |
| 20260504214932 | 59 | 54 | 6.0 | 24.0 | 0.00 | 0.00 | 0.00 | 1 | 1015.4 |
| 20260504214146 | 59 | 251 | 7.0 | 24.0 | 0.00 | 0.00 | 0.00 | 1 | 1015.4 |
| 20260504213644 | 60 | 223 | 12.0 | 21.0 | 0.00 | 0.00 | 0.00 | 1 | 1015.5 |
| 20260504213144 | 60 | 186 | 7.0 | 19.0 | 0.00 | 0.00 | 0.00 | 1 | 1015.3 |
| 20260504212646 | 60 | 269 | 4.0 | 19.0 | 0.00 | 0.00 | 0.00 | 1 | 1015.4 |
| 20260504212144 | 60 | 261 | 6.0 | 17.0 | 0.00 | 0.00 | 0.00 | 1 | 1015.5 |
| 20260504211645 | 60 | 56 | 8.0 | 20.0 | 0.00 | 0.00 | 0.00 | 1 | 1015.4 |
| 20260504211427 | 59 | 269 | 5.0 | 20.0 | 0.00 | 0.00 | 0.00 | 1 | 1015.6 |
| 20260504210645 | 59 | 219 | 8.0 | 24.0 | 0.00 | 0.00 | 0.00 | 1 | 1015.5 |
| 20260504210429 | 60 | 237 | 14.0 | 24.0 | 0.00 | 0.00 | 0.00 | 1 | 1015.5 |
| 20260504205645 | 60 | 240 | 9.0 | 17.0 | 0.00 | 0.00 | 0.00 | 1 | 1015.5 |
| 20260504205144 | 60 | 313 | 6.0 | 14.0 | 0.00 | 0.00 | 0.00 | 1 | 1015.6 |
| 20260504204644 | 60 | 302 | 6.0 | 18.0 | 0.00 | 0.00 | 0.00 | 1 | 1015.5 |
| 20260504204429 | 59 | 264 | 12.0 | 19.0 | 0.00 | 0.00 | 0.00 | 1 | 1015.5 |
| 20260504203919 | 59 | 82 | 5.0 | 26.0 | 0.00 | 0.00 | 0.00 | 1 | 1015.5 |
| 20260504203145 | 59 | 240 | 8.0 | 26.0 | 0.00 | 0.00 | 0.00 | 1 | 1015.5 |
| 20260504202645 | 60 | 0 | 14.0 | 21.0 | 0.00 | 0.00 | 0.00 | 1 | 1015.5 |
| 20260504202144 | 61 | 138 | 4.0 | 20.0 | 0.00 | 0.00 | 0.00 | 1 | 1015.3 |
| 20260504201644 | 61 | 265 | 11.0 | 20.0 | 0.00 | 0.00 | 0.00 | 1 | 1015.4 |
| 20260504201144 | 61 | 250 | 10.0 | 20.0 | 0.00 | 0.00 | 0.00 | 1 | 1015.4 |
| 20260504200643 | 61 | 221 | 6.0 | 19.0 | 0.00 | 0.00 | 0.00 | 1 | 1015.4 |
| 20260504200143 | 61 | 13 | 7.0 | 18.0 | 0.00 | 0.00 | 0.00 | 1 | 1015.5 |
| 20260504195643 | 61 | 186 | 7.0 | 19.0 | 0.00 | 0.00 | 0.00 | 1 | 1015.5 |
| 20260504195142 | 60 | 336 | 8.0 | 19.0 | 0.00 | 0.00 | 0.00 | 1 | 1015.5 |
| 20260504194927 | 60 | 0 | 6.0 | 15.0 | 0.00 | 0.00 | 0.00 | 1 | 1015.5 |
| 20260504194143 | 60 | 118 | 3.0 | 20.0 | 0.00 | 0.00 | 0.00 | 1 | 1015.5 |
| 20260504193643 | 59 | 145 | 10.0 | 21.0 | 0.00 | 0.00 | 0.00 | 1 | 1015.6 |
| 20260504193142 | 59 | 283 | 6.0 | 21.0 | 0.00 | 0.00 | 0.00 | 1 | 1015.5 |
| 20260504192643 | 59 | 278 | 6.0 | 18.0 | 0.00 | 0.00 | 0.00 | 1 | 1015.5 |
| 20260504192141 | 59 | 266 | 5.0 | 18.0 | 0.00 | 0.00 | 0.00 | 1 | 1015.4 |
| 20260504191641 | 59 | 258 | 10.0 | 17.0 | 0.00 | 0.00 | 0.00 | 1 | 1015.6 |
| 20260504191141 | 59 | 307 | 6.0 | 17.0 | 0.00 | 0.00 | 0.00 | 1 | 1015.6 |
| 20260504190927 | 58 | 321 | 6.0 | 17.0 | 0.00 | 0.00 | 0.00 | 1 | 1015.6 |
| 20260504190141 | 59 | 259 | 9.0 | 16.0 | 0.00 | 0.00 | 0.00 | 1 | 1015.6 |
| 20260504185642 | 58 | 281 | 4.0 | 18.0 | 0.00 | 0.00 | 0.00 | 1 | 1015.6 |
| 20260504185143 | 59 | 268 | 12.0 | 18.0 | 0.00 | 0.00 | 0.00 | 1 | 1015.7 |
| 20260504184641 | 60 | 261 | 8.0 | 18.0 | 0.00 | 0.00 | 0.00 | 1 | 1015.6 |
| 20260504184142 | 60 | 281 | 9.0 | 16.0 | 0.00 | 0.00 | 0.00 | 1 | 1015.6 |
| 20260504183642 | 60 | 271 | 9.0 | 16.0 | 0.00 | 0.00 | 0.00 | 1 | 1015.6 |
| 20260504183141 | 60 | 96 | 3.0 | 16.0 | 0.00 | 0.00 | 0.00 | 1 | 1015.5 |
| 20260504182641 | 60 | 355 | 5.0 | 18.0 | 0.00 | 0.00 | 0.00 | 1 | 1015.5 |
| 20260504182142 | 59 | 344 | 6.0 | 18.0 | 0.00 | 0.00 | 0.00 | 1 | 1015.6 |
| 20260504181640 | 60 | 31 | 6.0 | 20.0 | 0.00 | 0.00 | 0.00 | 1 | 1015.5 |
| 20260504181140 | 60 | 258 | 5.0 | 20.0 | 0.00 | 0.00 | 0.00 | 1 | 1015.6 |
| 20260504180640 | 60 | 299 | 5.0 | 16.0 | 0.00 | 0.00 | 0.00 | 1 | 1015.6 |
| 20260504180140 | 60 | 233 | 5.0 | 17.0 | 0.00 | 0.00 | 0.00 | 1 | 1015.5 |
| 20260504175641 | 60 | 197 | 10.0 | 17.0 | 0.00 | 0.00 | 0.00 | 1 | 1015.4 |
| 20260504175139 | 60 | 345 | 4.0 | 15.0 | 0.00 | 0.00 | 0.00 | 1 | 1015.3 |
| 20260504174639 | 60 | 255 | 8.0 | 15.0 | 0.00 | 0.00 | 0.00 | 1 | 1015.4 |
| 20260504174140 | 60 | 292 | 3.0 | 12.0 | 0.00 | 0.00 | 0.00 | 1 | 1015.3 |
| 20260504173641 | 60 | 271 | 5.0 | 18.0 | 0.00 | 0.00 | 0.00 | 1 | 1015.2 |
| 20260504173139 | 59 | 197 | 6.0 | 18.0 | 0.00 | 0.00 | 0.00 | 1 | 1015.2 |
| 20260504172641 | 60 | 313 | 5.0 | 16.0 | 0.00 | 0.00 | 0.00 | 1 | 1015.1 |
| 20260504172140 | 59 | 344 | 7.0 | 16.0 | 0.00 | 0.00 | 0.00 | 1 | 1015.1 |
| 20260504171639 | 59 | 283 | 7.0 | 15.0 | 0.00 | 0.00 | 0.00 | 1 | 1015.1 |
| 20260504171139 | 60 | 271 | 5.0 | 19.0 | 0.00 | 0.00 | 0.00 | 1 | 1015.1 |
| 20260504170640 | 60 | 268 | 7.0 | 19.0 | 0.00 | 0.00 | 0.00 | 1 | 1014.9 |
| 20260504170216 | 59 | 299 | 4.0 | 14.0 | 0.00 | 0.00 | 0.00 | 1 | 1014.9 |
| 20260504170206 | 59 | 252 | 3.0 | 13.0 | 0.00 | 0.00 | 0.00 | 1 | 1014.9 |
| 20260504160425 | 55 | 243 | 8.0 | 13.0 | 0.00 | 0.00 | 0.00 | 1 | 1015.1 |
| 20260504151135 | 54 | 255 | 2.0 | 7.0 | 0.00 | 0.00 | 0.00 | 1 | 1014.8 |
| 20260504150636 | 54 | 298 | 2.0 | 5.0 | 0.00 | 0.00 | 0.00 | 1 | 1014.7 |
| 20260504150136 | 54 | 230 | 2.0 | 4.0 | 0.00 | 0.00 | 0.00 | 1 | 1014.7 |
| 20260504141134 | 53 | 0 | 3.0 | 10.0 | 0.00 | 0.00 | 0.00 | 1 | 1014.7 |
| 20260504140634 | 53 | 272 | 4.0 | 9.0 | 0.00 | 0.00 | 0.00 | 1 | 1014.6 |
| 20260504140133 | 53 | 0 | 4.0 | 7.0 | 0.00 | 0.00 | 0.00 | 1 | 1014.6 |
| 20260504130633 | 52 | 250 | 4.0 | 7.0 | 0.00 | 0.00 | 0.00 | 1 | 1014.3 |
| 20260504130131 | 52 | 272 | 5.0 | 7.0 | 0.00 | 0.00 | 0.00 | 1 | 1014.3 |
| 20260504120211 | 53 | 0 | 6.0 | 10.0 | 0.00 | 0.00 | 0.00 | 1 | 1014.0 |
| 20260504120158 | 53 | 0 | 2.0 | 10.0 | 0.00 | 0.00 | 0.00 | 1 | 1014.0 |
| 20260504110631 | 53 | 285 | 4.0 | 10.0 | 0.00 | 0.00 | 0.00 | 1 | 1014.0 |
| 20260504110133 | 53 | 0 | 6.0 | 10.0 | 0.00 | 0.00 | 0.00 | 1 | 1014.0 |